| time (UTC) | temp F | wind direction | speed MPH | gust MPH | rain 1hr in | rain 24hr in | rain mn in | humidity % | barometer mb |
| 20260904184039 | 76 | 175 | 1.0 | 4.0 | 0.00 | 0.24 | 0.24 | 86 | 1012.0 |
| 20260904183536 | 76 | 157 | 0.0 | 2.0 | 0.00 | 0.24 | 0.24 | 87 | 1012.0 |
| 20260904183509 | 76 | 156 | 2.0 | 6.0 | 0.00 | 0.24 | 0.24 | 86 | 1011.8 |
| 20260904183504 | 76 | 157 | 1.0 | 6.0 | 0.00 | 0.24 | 0.24 | 86 | 1012.0 |
| 20260904182017 | 75 | 164 | 3.0 | 6.0 | 0.00 | 0.24 | 0.24 | 86 | 1011.8 |
| 20260904181845 | 75 | 123 | 2.0 | 4.0 | 0.00 | 0.24 | 0.24 | 87 | 1011.8 |
| 20260904181016 | 75 | 132 | 1.0 | 4.0 | 0.00 | 0.24 | 0.24 | 89 | 1011.7 |
| 20260904180516 | 74 | 145 | 2.0 | 4.0 | 0.00 | 0.24 | 0.24 | 89 | 1011.6 |
| 20260904180324 | 74 | 205 | 2.0 | 7.0 | 0.00 | 0.24 | 0.24 | 89 | 1011.6 |
| 20260904175509 | 74 | 184 | 2.0 | 7.0 | 0.00 | 0.24 | 0.24 | 90 | 1011.6 |
| 20260904175011 | 74 | 139 | 2.0 | 5.0 | 0.00 | 0.24 | 0.24 | 90 | 1011.6 |
| 20260904174459 | 74 | 146 | 1.0 | 4.0 | 0.00 | 0.24 | 0.24 | 91 | 1011.7 |
| 20260904174002 | 74 | 140 | 2.0 | 6.0 | 0.00 | 0.24 | 0.24 | 92 | 1011.7 |
| 20260904173450 | 73 | 194 | 2.0 | 6.0 | 0.00 | 0.25 | 0.24 | 92 | 1011.6 |
| 20260904173003 | 73 | 213 | 2.0 | 6.0 | 0.00 | 0.25 | 0.24 | 92 | 1011.7 |
| 20260904172451 | 73 | 93 | 2.0 | 6.0 | 0.00 | 0.26 | 0.24 | 92 | 1011.7 |
| 20260904172002 | 73 | 97 | 2.0 | 5.0 | 0.00 | 0.34 | 0.24 | 93 | 1011.7 |
| 20260904171447 | 73 | 180 | 2.0 | 4.0 | 0.00 | 0.37 | 0.24 | 94 | 1012.1 |
| 20260904170947 | 72 | 124 | 1.0 | 4.0 | 0.00 | 0.40 | 0.24 | 95 | 1012.1 |
| 20260904170459 | 72 | 136 | 1.0 | 4.0 | 0.00 | 0.48 | 0.24 | 95 | 1012.1 |
| 20260904165935 | 72 | 136 | 1.0 | 4.0 | 0.00 | 0.52 | 0.24 | 95 | 1012.2 |
| 20260904165433 | 72 | 136 | 0.0 | 4.0 | 0.00 | 0.56 | 0.24 | 96 | 1012.2 |
| 20260904164919 | 72 | 130 | 0.0 | 1.0 | 0.00 | 0.60 | 0.24 | 96 | 1012.2 |
| 20260904164416 | 72 | 130 | 0.0 | 1.0 | 0.00 | 0.73 | 0.24 | 97 | 1012.0 |
| 20260904163904 | 71 | 130 | 0.0 | 2.0 | 0.00 | 1.01 | 0.24 | 97 | 1012.0 |
| 20260904163714 | 71 | 130 | 1.0 | 4.0 | 0.00 | 1.15 | 0.24 | 97 | 1012.0 |
| 20260904162850 | 71 | 130 | 1.0 | 4.0 | 0.00 | 1.23 | 0.24 | 97 | 1012.0 |
| 20260904162656 | 71 | 103 | 1.0 | 6.0 | 0.00 | 1.23 | 0.24 | 97 | 1012.0 |
| 20260904161844 | 71 | 130 | 1.0 | 6.0 | 0.00 | 1.23 | 0.24 | 97 | 1012.0 |
| 20260904161326 | 71 | 86 | 1.0 | 5.0 | 0.00 | 1.23 | 0.24 | 97 | 1012.1 |
| 20260904160820 | 70 | 32 | 1.0 | 5.0 | 0.00 | 1.23 | 0.24 | 97 | 1012.1 |
| 20260904160333 | 70 | 166 | 1.0 | 5.0 | 0.00 | 1.23 | 0.24 | 97 | 1012.1 |
| 20260904155900 | 70 | 90 | 1.0 | 5.0 | 0.00 | 1.24 | 0.24 | 97 | 1012.0 |
| 20260904155843 | 70 | 79 | 1.0 | 5.0 | 0.00 | 1.23 | 0.24 | 97 | 1012.0 |
| 20260904154806 | 70 | 57 | 0.0 | 3.0 | 0.00 | 1.24 | 0.24 | 97 | 1012.0 |
| 20260904154307 | 70 | 35 | 0.0 | 3.0 | 0.00 | 1.24 | 0.24 | 97 | 1011.7 |
| 20260904154022 | 70 | 71 | 0.0 | 0.0 | 0.00 | 1.24 | 0.24 | 97 | 1011.7 |
| 20260904153259 | 70 | 67 | 0.0 | 2.0 | 0.00 | 1.24 | 0.24 | 97 | 1011.7 |
| 20260904152752 | 70 | 61 | 1.0 | 4.0 | 0.00 | 1.24 | 0.24 | 97 | 1011.9 |
| 20260904152242 | 70 | 87 | 0.0 | 4.0 | 0.01 | 1.24 | 0.24 | 98 | 1011.9 |
| 20260904152146 | 70 | 134 | 0.0 | 0.0 | 0.01 | 1.24 | 0.24 | 98 | 1011.6 |
| 20260904152133 | 70 | 134 | 0.0 | 0.0 | 0.01 | 1.24 | 0.24 | 98 | 1011.9 |
| 20260904150712 | 70 | 134 | 0.0 | 0.0 | 0.01 | 1.24 | 0.24 | 98 | 1011.6 |
| 20260904150203 | 69 | 134 | 0.0 | 1.0 | 0.01 | 1.24 | 0.24 | 98 | 1011.6 |
| 20260904145704 | 69 | 134 | 1.0 | 5.0 | 0.01 | 1.24 | 0.24 | 98 | 1011.1 |
| 20260904145158 | 69 | 136 | 2.0 | 6.0 | 0.01 | 1.24 | 0.24 | 98 | 1011.1 |
| 20260904144646 | 69 | 112 | 2.0 | 6.0 | 0.01 | 1.24 | 0.24 | 97 | 1011.1 |
| 20260904144142 | 69 | 139 | 1.0 | 4.0 | 0.01 | 1.24 | 0.24 | 97 | 1011.9 |
| 20260904144002 | 69 | 181 | 1.0 | 5.0 | 0.01 | 1.24 | 0.24 | 97 | 1011.9 |
| 20260904143136 | 69 | 111 | 1.0 | 5.0 | 0.01 | 1.24 | 0.24 | 97 | 1011.9 |
| 20260904142629 | 69 | 306 | 0.0 | 2.0 | 0.00 | 1.23 | 0.23 | 97 | 1012.5 |
| 20260904142128 | 69 | 328 | 0.0 | 1.0 | 0.00 | 1.23 | 0.23 | 97 | 1012.5 |
| 20260904141608 | 69 | 328 | 0.0 | 0.0 | 0.00 | 1.23 | 0.23 | 97 | 1012.5 |
| 20260904141122 | 69 | 328 | 0.0 | 0.0 | 0.00 | 1.23 | 0.23 | 97 | 1012.2 |
| 20260904140554 | 69 | 328 | 0.0 | 0.0 | 0.00 | 1.23 | 0.23 | 98 | 1012.2 |
| 20260904140108 | 69 | 328 | 0.0 | 0.0 | 0.00 | 1.23 | 0.23 | 98 | 1012.2 |
| 20260904135547 | 69 | 328 | 0.0 | 0.0 | 0.00 | 1.23 | 0.23 | 98 | 1012.5 |
| 20260904135341 | 69 | 328 | 0.0 | 0.0 | 0.00 | 1.23 | 0.23 | 98 | 1012.5 |
| 20260904134528 | 69 | 328 | 0.0 | 0.0 | 0.00 | 1.23 | 0.23 | 98 | 1012.5 |
| 20260904134022 | 68 | 328 | 0.0 | 1.0 | 0.00 | 1.23 | 0.23 | 98 | 1011.6 |
| 20260904133516 | 68 | 328 | 0.0 | 1.0 | 0.01 | 1.23 | 0.23 | 97 | 1011.6 |
| 20260904133006 | 68 | 328 | 0.0 | 2.0 | 0.01 | 1.23 | 0.23 | 97 | 1011.3 |
| 20260904132504 | 68 | 327 | 0.0 | 4.0 | 0.01 | 1.23 | 0.23 | 97 | 1011.3 |
| 20260904132004 | 68 | 117 | 0.0 | 4.0 | 0.02 | 1.23 | 0.23 | 97 | 1011.3 |
| 20260904131509 | 68 | 225 | 1.0 | 8.0 | 0.03 | 1.23 | 0.23 | 97 | 1011.0 |
| 20260904130950 | 68 | 79 | 2.0 | 8.0 | 0.03 | 1.23 | 0.23 | 97 | 1011.0 |
| 20260904130823 | 68 | 125 | 2.0 | 6.0 | 0.04 | 1.23 | 0.23 | 97 | 1011.0 |
| 20260904125947 | 68 | 128 | 2.0 | 6.0 | 0.05 | 1.23 | 0.23 | 97 | 1011.5 |
| 20260904125432 | 68 | 56 | 1.0 | 6.0 | 0.07 | 1.23 | 0.23 | 97 | 1011.5 |
| 20260904124920 | 68 | 335 | 2.0 | 6.0 | 0.07 | 1.23 | 0.23 | 97 | 1011.5 |
| 20260904124422 | 68 | 90 | 2.0 | 6.0 | 0.08 | 1.23 | 0.23 | 97 | 1012.0 |
| 20260904123920 | 68 | 107 | 1.0 | 4.0 | 0.09 | 1.23 | 0.23 | 98 | 1012.0 |
| 20260904123414 | 68 | 94 | 1.0 | 5.0 | 0.10 | 1.22 | 0.22 | 98 | 1012.0 |
| 20260904122905 | 68 | 36 | 1.0 | 5.0 | 0.10 | 1.22 | 0.22 | 97 | 1011.0 |
| 20260904122358 | 68 | 28 | 1.0 | 5.0 | 0.12 | 1.25 | 0.22 | 97 | 1011.0 |
| 20260904122213 | 68 | 82 | 2.0 | 5.0 | 0.12 | 1.24 | 0.21 | 97 | 1011.0 |
| 20260904121351 | 68 | 167 | 3.0 | 5.0 | 0.12 | 1.23 | 0.20 | 97 | 1011.6 |
| 20260904120850 | 68 | 119 | 2.0 | 5.0 | 0.11 | 1.22 | 0.20 | 97 | 1011.6 |
| 20260904120343 | 68 | 106 | 2.0 | 4.0 | 0.11 | 1.22 | 0.19 | 97 | 1011.6 |
| 20260904115838 | 68 | 153 | 1.0 | 4.0 | 0.11 | 1.21 | 0.18 | 97 | 1012.1 |
| 20260904115323 | 68 | 158 | 1.0 | 4.0 | 0.10 | 1.19 | 0.16 | 97 | 1012.1 |
| 20260904114814 | 68 | 166 | 1.0 | 4.0 | 0.10 | 1.18 | 0.16 | 97 | 1012.1 |
| 20260904114308 | 68 | 171 | 0.0 | 4.0 | 0.10 | 1.17 | 0.15 | 97 | 1013.1 |
| 20260904113808 | 68 | 130 | 0.0 | 0.0 | 0.11 | 1.17 | 0.14 | 97 | 1013.1 |
| 20260904113309 | 68 | 130 | 0.0 | 0.0 | 0.10 | 1.15 | 0.12 | 97 | 1013.1 |
| 20260904113105 | 68 | 130 | 0.0 | 0.0 | 0.09 | 1.14 | 0.11 | 97 | 1013.1 |
| 20260904112609 | 68 | 130 | 0.0 | 0.0 | 0.09 | 1.13 | 0.10 | 97 | 1013.1 |
| 20260904112056 | 68 | 130 | 0.0 | 1.0 | 0.08 | 1.12 | 0.09 | 97 | 1013.1 |
| 20260904111253 | 68 | 130 | 1.0 | 2.0 | 0.08 | 1.11 | 0.08 | 97 | 1012.0 |
| 20260904110748 | 68 | 130 | 1.0 | 2.0 | 0.08 | 1.11 | 0.08 | 97 | 1012.0 |
| 20260904110246 | 68 | 178 | 1.0 | 2.0 | 0.08 | 1.11 | 0.08 | 97 | 1012.0 |
| 20260904105743 | 68 | 178 | 1.0 | 2.0 | 0.07 | 1.10 | 0.07 | 97 | 1011.4 |
| 20260904105551 | 68 | 178 | 0.0 | 0.0 | 0.06 | 1.09 | 0.06 | 97 | 1011.4 |
| 20260904104729 | 68 | 178 | 0.0 | 0.0 | 0.05 | 1.08 | 0.05 | 97 | 1011.4 |
| 20260904104223 | 68 | 178 | 0.0 | 0.0 | 0.04 | 1.07 | 0.04 | 97 | 1011.6 |
| 20260904103714 | 68 | 178 | 0.0 | 0.0 | 0.03 | 1.06 | 0.03 | 97 | 1011.6 |
| 20260904103210 | 68 | 178 | 0.0 | 0.0 | 0.02 | 1.05 | 0.02 | 97 | 1011.6 |
| 20260904102713 | 68 | 178 | 0.0 | 0.0 | 0.02 | 1.05 | 0.02 | 97 | 1011.6 |
| 20260904102159 | 67 | 178 | 0.0 | 0.0 | 0.01 | 1.04 | 0.01 | 97 | 1011.5 |
| 20260904101659 | 67 | 178 | 0.0 | 0.0 | 0.01 | 1.04 | 0.01 | 97 | 1011.5 |
| 20260904101155 | 67 | 178 | 0.0 | 0.0 | 0.00 | 1.03 | 0.00 | 97 | 1011.1 |
| 20260904100646 | 67 | 178 | 0.0 | 0.0 | 0.00 | 1.03 | 0.00 | 97 | 1011.0 |
| 20260904100445 | 67 | 178 | 0.0 | 0.0 | 0.00 | 1.03 | 0.00 | 97 | 1011.0 |
| 20260904095635 | 67 | 178 | 0.0 | 0.0 | 0.00 | 1.03 | 0.00 | 97 | 1011.3 |
| 20260904095432 | 67 | 178 | 0.0 | 0.0 | 0.00 | 1.03 | 0.00 | 97 | 1011.3 |
| 20260904094621 | 67 | 178 | 0.0 | 0.0 | 0.00 | 1.03 | 0.00 | 97 | 1011.3 |
| 20260904094117 | 67 | 178 | 0.0 | 0.0 | 0.00 | 1.03 | 0.00 | 97 | 1010.9 |
| 20260904093610 | 67 | 178 | 0.0 | 0.0 | 0.00 | 1.03 | 0.00 | 97 | 1010.9 |
| 20260904093356 | 67 | 178 | 0.0 | 0.0 | 0.00 | 1.03 | 0.00 | 97 | 1010.9 |
| 20260904092554 | 67 | 178 | 0.0 | 0.0 | 0.00 | 1.03 | 0.00 | 97 | 1011.3 |
| 20260904092113 | 67 | 178 | 0.0 | 0.0 | 0.00 | 1.03 | 0.00 | 97 | 1010.9 |
| 20260904092058 | 67 | 178 | 0.0 | 0.0 | 0.00 | 1.03 | 0.00 | 97 | 1011.3 |
| 20260904091107 | 67 | 178 | 0.0 | 1.0 | 0.00 | 1.03 | 0.00 | 97 | 1010.8 |
| 20260904091046 | 67 | 178 | 0.0 | 1.0 | 0.00 | 1.03 | 0.00 | 97 | 1010.9 |
| 20260904085948 | 67 | 178 | 0.0 | 0.0 | 0.00 | 1.03 | 0.00 | 97 | 1010.5 |
| 20260904085438 | 67 | 178 | 0.0 | 0.0 | 0.00 | 1.03 | 0.00 | 97 | 1010.5 |
| 20260904084922 | 67 | 178 | 0.0 | 0.0 | 0.00 | 1.03 | 0.00 | 97 | 1010.5 |
| 20260904084724 | 67 | 178 | 0.0 | 0.0 | 0.00 | 1.03 | 0.00 | 97 | 1010.6 |
| 20260904083855 | 67 | 178 | 0.0 | 0.0 | 0.00 | 1.03 | 0.00 | 97 | 1010.6 |
| 20260904083657 | 67 | 178 | 0.0 | 0.0 | 0.00 | 1.03 | 0.00 | 97 | 1010.6 |
| 20260904082848 | 67 | 178 | 0.0 | 0.0 | 0.00 | 1.03 | 0.00 | 97 | 1011.0 |
| 20260904082344 | 67 | 178 | 0.0 | 1.0 | 0.00 | 1.03 | 0.00 | 97 | 1011.0 |
| 20260904082137 | 67 | 178 | 0.0 | 2.0 | 0.00 | 1.03 | 0.00 | 97 | 1011.0 |
| 20260904081320 | 67 | 178 | 0.0 | 2.0 | 0.00 | 1.03 | 0.00 | 97 | 1011.0 |
| 20260904080817 | 67 | 150 | 0.0 | 0.0 | 0.00 | 1.03 | 0.00 | 97 | 1011.0 |
| 20260904080306 | 67 | 148 | 0.0 | 1.0 | 0.00 | 1.03 | 0.00 | 97 | 1011.0 |
| 20260904075808 | 67 | 148 | 0.0 | 1.0 | 0.00 | 1.03 | 0.00 | 97 | 1010.9 |
| 20260904075306 | 67 | 148 | 0.0 | 0.0 | 0.00 | 1.03 | 0.00 | 97 | 1010.9 |
| 20260904074756 | 67 | 148 | 0.0 | 0.0 | 0.00 | 1.03 | 0.00 | 97 | 1010.9 |
| 20260904074257 | 67 | 148 | 0.0 | 0.0 | 0.00 | 1.03 | 0.00 | 97 | 1011.4 |
| 20260904073750 | 67 | 148 | 0.0 | 0.0 | 0.00 | 1.03 | 0.00 | 97 | 1011.4 |
| 20260904073246 | 67 | 148 | 0.0 | 0.0 | 0.00 | 1.03 | 0.00 | 97 | 1011.4 |
| 20260904072743 | 67 | 148 | 0.0 | 0.0 | 0.00 | 1.03 | 0.00 | 97 | 1011.4 |
| 20260904072243 | 67 | 148 | 0.0 | 0.0 | 0.00 | 1.03 | 0.00 | 97 | 1011.4 |
| 20260904071736 | 67 | 148 | 0.0 | 0.0 | 0.00 | 1.03 | 0.00 | 97 | 1011.4 |
| 20260904071235 | 67 | 148 | 0.0 | 0.0 | 0.00 | 1.03 | 0.00 | 97 | 1011.5 |
| 20260904070718 | 67 | 148 | 0.0 | 0.0 | 0.00 | 1.03 | 0.00 | 97 | 1011.5 |
| 20260904070208 | 67 | 148 | 0.0 | 0.0 | 0.00 | 1.03 | 0.00 | 97 | 1011.5 |
| 20260904065704 | 67 | 148 | 0.0 | 0.0 | 0.00 | 1.03 | 0.00 | 97 | 1011.9 |
| 20260904065200 | 67 | 148 | 0.0 | 0.0 | 0.00 | 1.03 | 0.00 | 97 | 1011.9 |
| 20260904064652 | 67 | 148 | 0.0 | 0.0 | 0.00 | 1.03 | 0.00 | 97 | 1011.9 |
| 20260904064146 | 67 | 148 | 0.0 | 0.0 | 0.00 | 1.03 | 0.00 | 97 | 1011.8 |
| 20260904063644 | 67 | 148 | 0.0 | 0.0 | 0.00 | 1.03 | 0.00 | 97 | 1011.8 |
| 20260904063144 | 67 | 148 | 0.0 | 0.0 | 0.00 | 1.03 | 0.00 | 97 | 1011.8 |
| 20260904062613 | 67 | 148 | 0.0 | 0.0 | 0.00 | 1.03 | 0.00 | 97 | 1011.8 |
| 20260904062108 | 67 | 148 | 0.0 | 0.0 | 0.00 | 1.03 | 0.00 | 97 | 1011.8 |
| 20260904061606 | 67 | 148 | 0.0 | 0.0 | 0.00 | 1.03 | 0.00 | 97 | 1011.8 |
| 20260904061100 | 67 | 148 | 0.0 | 0.0 | 0.00 | 1.03 | 0.00 | 97 | 1012.0 |
| 20260904060550 | 67 | 148 | 0.0 | 1.0 | 0.00 | 1.03 | 0.00 | 96 | 1012.0 |
| 20260904060100 | 67 | 148 | 0.0 | 1.0 | 0.00 | 1.03 | 0.00 | 96 | 1012.0 |
| 20260904055539 | 67 | 148 | 0.0 | 4.0 | 0.00 | 1.03 | 0.00 | 96 | 1012.1 |
| 20260904055031 | 67 | 148 | 1.0 | 4.0 | 0.00 | 1.03 | 0.00 | 96 | 1012.1 |
| 20260904054525 | 67 | 150 | 1.0 | 2.0 | 0.00 | 1.03 | 0.00 | 96 | 1012.1 |
| 20260904054018 | 67 | 176 | 0.0 | 2.0 | 0.00 | 1.03 | 0.00 | 97 | 1012.8 |
| 20260904053512 | 67 | 176 | 0.0 | 1.0 | 0.00 | 1.03 | 0.00 | 97 | 1012.8 |
| 20260904053011 | 67 | 176 | 0.0 | 0.0 | 0.00 | 1.03 | 0.00 | 96 | 1012.8 |
| 20260904052506 | 67 | 176 | 0.0 | 0.0 | 0.00 | 1.03 | 0.00 | 96 | 1012.5 |
| 20260904052002 | 67 | 176 | 0.0 | 0.0 | 0.00 | 1.03 | 0.00 | 96 | 1012.5 |
| 20260904051452 | 67 | 176 | 0.0 | 0.0 | 0.00 | 1.03 | 0.00 | 96 | 1012.4 |
| 20260904050945 | 67 | 176 | 0.0 | 0.0 | 0.00 | 1.03 | 0.00 | 96 | 1012.4 |
| 20260904050441 | 67 | 176 | 0.0 | 0.0 | 0.00 | 1.03 | 0.00 | 96 | 1012.4 |
| 20260904045940 | 68 | 176 | 0.0 | 0.0 | 0.00 | 1.03 | 0.00 | 96 | 1012.0 |
| 20260904045728 | 68 | 176 | 0.0 | 0.0 | 0.00 | 1.03 | 0.00 | 96 | 1012.0 |
| 20260904044915 | 68 | 176 | 0.0 | 1.0 | 0.00 | 1.03 | 0.00 | 96 | 1012.0 |
| 20260904044406 | 68 | 176 | 0.0 | 1.0 | 0.00 | 1.03 | 0.00 | 96 | 1012.6 |
| 20260904043859 | 68 | 176 | 0.0 | 1.0 | 0.00 | 1.03 | 0.00 | 96 | 1012.6 |
| 20260904043647 | 68 | 176 | 0.0 | 2.0 | 0.00 | 1.03 | 0.00 | 96 | 1012.6 |
| 20260904042843 | 69 | 176 | 1.0 | 2.0 | 0.00 | 1.03 | 0.00 | 96 | 1012.8 |
| 20260904042337 | 69 | 176 | 0.0 | 2.0 | 0.00 | 1.03 | 0.00 | 96 | 1012.8 |
| 20260904041826 | 69 | 176 | 0.0 | 2.0 | 0.00 | 1.03 | 0.00 | 96 | 1012.8 |
| 20260904041323 | 69 | 176 | 0.0 | 0.0 | 0.00 | 1.03 | 0.00 | 96 | 1012.9 |
| 20260904041119 | 69 | 176 | 0.0 | 0.0 | 0.00 | 1.03 | 0.00 | 96 | 1012.9 |
| 20260904040308 | 69 | 176 | 0.0 | 0.0 | 0.00 | 1.03 | 0.00 | 96 | 1012.9 |
| 20260904035749 | 69 | 176 | 0.0 | 0.0 | 0.00 | 1.03 | 1.03 | 96 | 1012.6 |
| 20260904035547 | 69 | 176 | 0.0 | 0.0 | 0.00 | 1.03 | 1.03 | 96 | 1012.6 |
| 20260904035043 | 69 | 176 | 0.0 | 0.0 | 0.00 | 1.03 | 1.03 | 96 | 1012.6 |
| 20260904034542 | 69 | 176 | 0.0 | 0.0 | 0.00 | 1.03 | 1.03 | 96 | 1012.8 |
| 20260904033738 | 69 | 176 | 0.0 | 0.0 | 0.00 | 1.03 | 1.03 | 96 | 1012.8 |
| 20260904033245 | 69 | 176 | 0.0 | 0.0 | 0.00 | 1.03 | 1.03 | 96 | 1012.8 |
| 20260904032740 | 69 | 176 | 0.0 | 0.0 | 0.00 | 1.03 | 1.03 | 95 | 1012.6 |
| 20260904032240 | 69 | 176 | 0.0 | 0.0 | 0.00 | 1.03 | 1.03 | 95 | 1012.6 |
| 20260904032039 | 69 | 176 | 0.0 | 0.0 | 0.00 | 1.03 | 1.03 | 96 | 1012.6 |
| 20260904031217 | 69 | 176 | 0.0 | 0.0 | 0.00 | 1.03 | 1.03 | 95 | 1012.6 |
| 20260904030711 | 69 | 176 | 0.0 | 0.0 | 0.00 | 1.03 | 1.03 | 95 | 1012.6 |
| 20260904030205 | 69 | 176 | 0.0 | 0.0 | 0.00 | 1.03 | 1.03 | 95 | 1012.6 |
| 20260904025706 | 69 | 176 | 0.0 | 0.0 | 0.00 | 1.03 | 1.03 | 95 | 1012.3 |
| 20260904025148 | 70 | 176 | 0.0 | 0.0 | 0.00 | 1.03 | 1.03 | 95 | 1012.3 |
| 20260904024644 | 70 | 176 | 0.0 | 0.0 | 0.00 | 1.03 | 1.03 | 95 | 1012.3 |
| 20260904024140 | 70 | 176 | 0.0 | 0.0 | 0.00 | 1.03 | 1.03 | 95 | 1012.3 |
| 20260904023637 | 70 | 176 | 0.0 | 0.0 | 0.00 | 1.03 | 1.03 | 95 | 1012.3 |
| 20260904023120 | 70 | 176 | 0.0 | 0.0 | 0.00 | 1.03 | 1.03 | 95 | 1012.3 |
| 20260904022616 | 70 | 176 | 0.0 | 0.0 | 0.00 | 1.03 | 1.03 | 95 | 1012.1 |
| 20260904022057 | 70 | 176 | 0.0 | 0.0 | 0.00 | 1.03 | 1.03 | 95 | 1012.1 |
| 20260904021553 | 70 | 176 | 0.0 | 0.0 | 0.00 | 1.03 | 1.03 | 95 | 1012.1 |
| 20260904021050 | 71 | 176 | 0.0 | 0.0 | 0.00 | 1.03 | 1.03 | 95 | 1012.2 |
| 20260904020544 | 71 | 176 | 0.0 | 0.0 | 0.00 | 1.03 | 1.03 | 95 | 1012.2 |
| 20260904020052 | 71 | 176 | 0.0 | 0.0 | 0.00 | 1.03 | 1.03 | 95 | 1012.3 |
| 20260904015522 | 71 | 176 | 0.0 | 0.0 | 0.00 | 1.03 | 1.03 | 95 | 1012.2 |
| 20260904015016 | 71 | 176 | 0.0 | 0.0 | 0.00 | 1.03 | 1.03 | 95 | 1012.2 |
| 20260904014506 | 71 | 176 | 0.0 | 0.0 | 0.00 | 1.03 | 1.03 | 95 | 1012.1 |
| 20260904014058 | 71 | 176 | 0.0 | 0.0 | 0.00 | 1.03 | 1.03 | 95 | 1012.1 |
| 20260904012956 | 71 | 176 | 0.0 | 0.0 | 0.00 | 1.03 | 1.03 | 95 | 1011.7 |
| 20260904012755 | 71 | 176 | 0.0 | 0.0 | 0.00 | 1.03 | 1.03 | 95 | 1011.7 |
| 20260904011945 | 71 | 176 | 0.0 | 0.0 | 0.00 | 1.03 | 1.03 | 95 | 1011.7 |
| 20260904011749 | 71 | 176 | 0.0 | 0.0 | 0.00 | 1.03 | 1.03 | 94 | 1011.7 |
| 20260904010937 | 71 | 176 | 0.0 | 0.0 | 0.00 | 1.03 | 1.03 | 94 | 1011.7 |
| 20260904010433 | 71 | 176 | 0.0 | 0.0 | 0.00 | 1.03 | 1.03 | 94 | 1011.7 |
| 20260904005916 | 71 | 176 | 0.0 | 0.0 | 0.00 | 1.03 | 1.03 | 94 | 1011.4 |
| 20260904005405 | 71 | 176 | 0.0 | 0.0 | 0.00 | 1.03 | 1.03 | 93 | 1011.4 |
| 20260904005213 | 71 | 176 | 0.0 | 0.0 | 0.00 | 1.03 | 1.03 | 93 | 1011.4 |
| 20260904004352 | 72 | 176 | 0.0 | 0.0 | 0.00 | 1.03 | 1.03 | 93 | 1011.3 |
| 20260904004151 | 72 | 176 | 0.0 | 0.0 | 0.00 | 1.03 | 1.03 | 93 | 1011.4 |
| 20260904003649 | 72 | 176 | 0.0 | 1.0 | 0.00 | 1.03 | 1.03 | 93 | 1011.4 |
| 20260904002842 | 72 | 176 | 0.0 | 1.0 | 0.00 | 1.03 | 1.03 | 92 | 1011.3 |
| 20260904002322 | 73 | 176 | 0.0 | 0.0 | 0.00 | 1.03 | 1.03 | 92 | 1011.3 |
| 20260904002131 | 73 | 176 | 0.0 | 0.0 | 0.00 | 1.03 | 1.03 | 92 | 1011.3 |
| 20260904001317 | 73 | 184 | 0.0 | 0.0 | 0.00 | 1.03 | 1.03 | 91 | 1011.2 |
| 20260904000812 | 73 | 184 | 0.0 | 0.0 | 0.00 | 1.03 | 1.03 | 91 | 1011.3 |
| 20260904000310 | 74 | 184 | 0.0 | 0.0 | 0.00 | 1.03 | 1.03 | 91 | 1011.3 |
| 20260903235806 | 74 | 184 | 0.0 | 0.0 | 0.00 | 1.03 | 1.03 | 90 | 1010.9 |
| 20260903235316 | 74 | 184 | 0.0 | 0.0 | 0.00 | 1.03 | 1.03 | 90 | 1010.9 |
| 20260903234758 | 75 | 184 | 0.0 | 0.0 | 0.00 | 1.03 | 1.03 | 90 | 1011.0 |
| 20260903234246 | 75 | 184 | 0.0 | 0.0 | 0.00 | 1.03 | 1.03 | 89 | 1010.9 |
| 20260903233743 | 75 | 184 | 0.0 | 0.0 | 0.00 | 1.03 | 1.03 | 88 | 1010.9 |
| 20260903233214 | 75 | 184 | 0.0 | 0.0 | 0.00 | 1.03 | 1.03 | 88 | 1010.9 |
| 20260903232712 | 75 | 184 | 0.0 | 0.0 | 0.00 | 1.03 | 1.03 | 87 | 1010.8 |
| 20260903232218 | 75 | 184 | 0.0 | 2.0 | 0.00 | 1.03 | 1.03 | 87 | 1010.8 |
| 20260903232000 | 76 | 184 | 1.0 | 2.0 | 0.00 | 1.03 | 1.03 | 87 | 1010.8 |
| 20260903231151 | 76 | 184 | 1.0 | 2.0 | 0.00 | 1.03 | 1.03 | 87 | 1010.9 |
| 20260903230704 | 76 | 184 | 1.0 | 2.0 | 0.00 | 1.03 | 1.03 | 86 | 1010.9 |
| 20260903230200 | 76 | 184 | 1.0 | 3.0 | 0.00 | 1.03 | 1.03 | 86 | 1010.9 |
| 20260903225648 | 76 | 184 | 1.0 | 3.0 | 0.00 | 1.03 | 1.03 | 85 | 1010.9 |
| 20260903225310 | 76 | 184 | 1.0 | 3.0 | 0.00 | 1.03 | 1.03 | 86 | 1011.0 |
| 20260903225235 | 76 | 184 | 1.0 | 2.0 | 0.00 | 1.03 | 1.03 | 86 | 1011.0 |
| 20260903224112 | 76 | 184 | 1.0 | 3.0 | 0.00 | 1.03 | 1.03 | 85 | 1010.7 |
| 20260903223615 | 76 | 184 | 1.0 | 3.0 | 0.00 | 1.03 | 1.03 | 85 | 1010.8 |
| 20260903223106 | 76 | 180 | 0.0 | 2.0 | 0.00 | 1.03 | 1.03 | 85 | 1010.7 |
| 20260903222605 | 76 | 180 | 0.0 | 2.0 | 0.00 | 1.03 | 1.03 | 86 | 1010.9 |
| 20260903222059 | 76 | 180 | 1.0 | 3.0 | 0.00 | 1.03 | 1.03 | 85 | 1010.9 |
| 20260903221559 | 76 | 180 | 1.0 | 3.0 | 0.00 | 1.03 | 1.03 | 85 | 1010.9 |
| 20260903221058 | 76 | 180 | 0.0 | 3.0 | 0.00 | 1.03 | 1.03 | 86 | 1010.9 |
| 20260903220904 | 76 | 180 | 1.0 | 4.0 | 0.00 | 1.03 | 1.03 | 86 | 1010.9 |
| 20260903220111 | 76 | 180 | 2.0 | 5.0 | 0.00 | 1.03 | 1.03 | 87 | 1010.9 |
| 20260903215556 | 75 | 175 | 2.0 | 5.0 | 0.00 | 1.03 | 1.03 | 86 | 1010.5 |
| 20260903215410 | 75 | 117 | 2.0 | 4.0 | 0.00 | 1.03 | 1.03 | 86 | 1010.5 |
| 20260903214548 | 75 | 190 | 1.0 | 4.0 | 0.00 | 1.03 | 1.03 | 87 | 1010.5 |
| 20260903214041 | 75 | 134 | 1.0 | 4.0 | 0.00 | 1.03 | 1.03 | 87 | 1010.6 |
| 20260903213856 | 75 | 120 | 1.0 | 4.0 | 0.00 | 1.03 | 1.03 | 87 | 1010.6 |
| 20260903213041 | 74 | 93 | 1.0 | 4.0 | 0.00 | 1.03 | 1.03 | 87 | 1010.6 |
| 20260903212541 | 74 | 88 | 1.0 | 4.0 | 0.00 | 1.03 | 1.03 | 88 | 1010.3 |
| 20260903212215 | 74 | 209 | 1.0 | 2.0 | 0.00 | 1.03 | 1.03 | 89 | 1010.3 |
| 20260903212141 | 74 | 200 | 0.0 | 3.0 | 0.00 | 1.03 | 1.03 | 88 | 1010.3 |
| 20260903211025 | 74 | 209 | 2.0 | 4.0 | 0.00 | 1.03 | 1.03 | 89 | 1010.1 |
| 20260903210525 | 74 | 209 | 3.0 | 6.0 | 0.00 | 1.03 | 1.03 | 89 | 1010.1 |
| 20260903210021 | 74 | 198 | 3.0 | 7.0 | 0.00 | 1.03 | 1.03 | 89 | 1010.1 |
| 20260903205518 | 74 | 207 | 3.0 | 7.0 | 0.00 | 1.03 | 1.03 | 89 | 1010.1 |
| 20260903205014 | 74 | 169 | 3.0 | 7.0 | 0.00 | 1.03 | 1.03 | 89 | 1010.1 |
| 20260903204845 | 74 | 212 | 3.0 | 5.0 | 0.00 | 1.03 | 1.03 | 90 | 1010.1 |
| 20260903204012 | 74 | 166 | 3.0 | 7.0 | 0.00 | 1.03 | 1.03 | 89 | 1010.7 |
| 20260903203507 | 74 | 202 | 4.0 | 7.0 | 0.00 | 1.03 | 1.03 | 90 | 1010.7 |
| 20260903203006 | 74 | 216 | 3.0 | 7.0 | 0.00 | 1.03 | 1.03 | 90 | 1010.9 |
| 20260903202503 | 73 | 198 | 3.0 | 6.0 | 0.00 | 1.03 | 1.03 | 91 | 1010.9 |
| 20260903202004 | 73 | 205 | 2.0 | 5.0 | 0.00 | 1.03 | 1.03 | 91 | 1010.8 |
| 20260903201501 | 73 | 154 | 2.0 | 6.0 | 0.00 | 1.03 | 1.03 | 92 | 1011.2 |
| 20260903200956 | 73 | 197 | 3.0 | 6.0 | 0.00 | 1.03 | 1.03 | 91 | 1011.2 |
| 20260903200823 | 73 | 192 | 3.0 | 6.0 | 0.00 | 1.03 | 1.03 | 91 | 1011.2 |
| 20260903195954 | 73 | 217 | 3.0 | 7.0 | 0.00 | 1.03 | 1.03 | 92 | 1011.9 |
| 20260903195453 | 72 | 216 | 3.0 | 7.0 | 0.00 | 1.03 | 1.03 | 93 | 1011.9 |
| 20260903194950 | 72 | 190 | 3.0 | 7.0 | 0.00 | 1.03 | 1.03 | 92 | 1011.9 |
| 20260903194450 | 72 | 171 | 2.0 | 5.0 | 0.00 | 1.03 | 1.03 | 93 | 1012.2 |
| 20260903194139 | 71 | 170 | 1.0 | 5.0 | 0.00 | 1.03 | 1.03 | 96 | 1012.1 |
| 20260903194055 | 72 | 163 | 2.0 | 5.0 | 0.00 | 1.03 | 1.03 | 95 | 1012.2 |
| 20260903192945 | 71 | 188 | 0.0 | 4.0 | 0.00 | 1.03 | 1.03 | 96 | 1012.1 |
| 20260903192440 | 71 | 257 | 0.0 | 2.0 | 0.00 | 1.03 | 1.03 | 96 | 1012.1 |
| 20260903192058 | 71 | 42 | 0.0 | 2.0 | 0.00 | 1.03 | 1.03 | 97 | 1012.0 |
| 20260903192029 | 71 | 300 | 0.0 | 2.0 | 0.00 | 1.03 | 1.03 | 97 | 1012.1 |
| 20260903190917 | 71 | 112 | 0.0 | 4.0 | 0.00 | 1.03 | 1.03 | 97 | 1011.9 |
| 20260903190412 | 70 | 112 | 0.0 | 4.0 | 0.00 | 1.04 | 1.03 | 97 | 1011.9 |
| 20260903185905 | 70 | 218 | 0.0 | 0.0 | 0.00 | 1.06 | 1.03 | 97 | 1012.0 |
| 20260903185351 | 69 | 218 | 0.0 | 0.0 | 0.00 | 1.06 | 1.03 | 97 | 1012.0 |
| 20260903184852 | 69 | 218 | 0.0 | 2.0 | 0.00 | 1.06 | 1.03 | 97 | 1011.9 |
| 20260903184346 | 69 | 218 | 0.0 | 2.0 | 0.00 | 1.06 | 1.03 | 97 | 1011.9 |